DW8397 Weather Reports


time (UTC)temp
F
wind
direction
speed
knots
gust
knots
rain 1hr
in
rain 24hr
in
rain mn
in
humidity
%
barometer
mb
20260906221531 62 302 0.9 8.7 0.00 0.09 0.07 70 1015.2
20260906220015 62 337 3.5 9.6 0.00 0.09 0.07 70 1015.0
20260906214513 63 355 3.5 8.7 0.00 0.09 0.07 69 1014.9
20260906213014 63 319 4.3 11.3 0.00 0.09 0.07 70 1014.9
20260906211513 64 319 0.9 7.8 0.00 0.09 0.07 71 1014.7
20260906210012 64 304 3.5 13.0 0.00 0.09 0.07 68 1014.7
20260906204512 65 5 0.0 10.4 0.00 0.09 0.07 69 1014.5
20260906203012 65 322 0.9 7.8 0.00 0.09 0.07 67 1014.5
20260906201510 65 26 2.6 11.3 0.00 0.09 0.07 64 1014.4
20260906200011 66 304 2.6 9.6 0.00 0.09 0.07 62 1014.2
20260906194509 66 327 5.2 8.7 0.00 0.09 0.07 65 1014.2
20260906193009 66 292 3.5 7.0 0.00 0.09 0.07 67 1014.3
20260906191509 66 301 1.7 10.4 0.00 0.09 0.07 65 1014.4
20260906190008 67 340 4.3 9.6 0.00 0.09 0.07 65 1014.3
20260906184510 67 301 3.5 10.4 0.00 0.09 0.07 67 1014.3
20260906183004 66 34 2.6 12.2 0.00 0.09 0.07 69 1014.5
20260906181600 65 308 2.6 8.7 0.00 0.09 0.07 73 1014.6
20260906180107 65 360 2.6 8.7 0.00 0.09 0.07 75 1014.6
20260906174555 64 331 6.1 11.3 0.00 0.09 0.07 75 1014.7
20260906173054 64 302 0.0 9.6 0.00 0.09 0.07 75 1014.8
20260906171559 63 355 4.3 10.4 0.00 0.09 0.07 79 1015.0
20260906170106 62 40 0.0 6.1 0.00 0.09 0.07 78 1015.2
20260906164549 62 327 3.5 9.6 0.00 0.09 0.07 79 1015.2
20260906163056 63 331 3.5 10.4 0.00 0.09 0.07 81 1015.2
20260906161549 62 350 0.0 4.3 0.00 0.09 0.07 80 1015.1
20260906160053 62 345 0.9 11.3 0.01 0.09 0.07 79 1015.2
20260906154547 63 17 0.9 7.8 0.01 0.09 0.07 76 1015.2
20260906153047 63 318 1.7 7.0 0.01 0.09 0.07 77 1015.1
20260906151545 62 28 0.0 6.1 0.01 0.09 0.07 85 1015.3
20260906150039 59 355 0.0 8.7 0.00 0.08 0.06 88 1015.4
20260906144542 58 347 3.5 7.0 0.00 0.08 0.06 87 1015.2
20260906143035 57 295 0.0 6.1 0.00 0.08 0.06 87 1015.0
20260906141530 56 42 0.0 0.0 0.00 0.08 0.06 87 1015.0
20260906140029 56 315 0.0 0.0 0.02 0.08 0.06 87 1015.0
20260906134527 55 298 0.0 0.0 0.02 0.08 0.06 87 1015.0
20260906133026 55 311 0.0 0.0 0.02 0.08 0.06 87 1014.9
20260906131527 54 209 0.0 0.0 0.02 0.08 0.06 87 1014.8
20260906130024 54 208 0.0 0.0 0.00 0.06 0.04 87 1014.9
20260906124522 53 208 0.0 0.0 0.00 0.06 0.04 87 1014.9
20260906123022 53 208 0.0 0.0 0.00 0.06 0.04 87 1014.8
20260906121521 53 208 0.0 0.0 0.00 0.06 0.04 87 1014.6
20260906120018 53 167 0.0 0.0 0.00 0.06 0.04 87 1014.7
20260906114616 53 167 0.0 0.0 0.00 0.06 0.04 87 1014.6
20260906113017 53 145 0.0 0.0 0.00 0.06 0.04 87 1014.3
20260906111513 53 145 0.0 0.0 0.00 0.06 0.04 87 1014.2
20260906110013 53 145 0.0 0.0 0.00 0.06 0.04 87 1014.0
20260906104508 53 145 0.0 0.0 0.00 0.06 0.04 87 1013.8
20260906103004 53 165 0.0 0.0 0.00 0.06 0.04 87 1013.6
20260906101507 53 166 0.0 0.0 0.00 0.06 0.04 88 1013.4
20260906100001 54 166 0.0 0.0 0.00 0.06 0.04 88 1013.4
20260906094600 54 165 0.0 0.0 0.00 0.06 0.04 87 1013.2
20260906093102 54 165 0.0 0.0 0.00 0.06 0.04 88 1013.1
20260906091556 54 165 0.0 0.0 0.00 0.06 0.04 88 1013.0
20260906090058 54 165 0.0 0.0 0.00 0.06 0.04 87 1012.9
20260906084555 54 165 0.0 0.0 0.00 0.06 0.04 88 1012.8
20260906083054 54 165 0.0 0.0 0.00 0.06 0.04 88 1012.7
20260906081553 54 165 0.0 0.0 0.00 0.06 0.04 88 1012.6
20260906080100 54 165 0.0 0.0 0.00 0.06 0.04 87 1012.8
20260906074551 54 165 0.0 0.0 0.00 0.06 0.04 88 1012.8
20260906073053 54 165 0.0 0.0 0.00 0.06 0.04 88 1012.5
20260906071553 54 165 0.0 0.0 0.01 0.06 0.04 88 1012.6
20260906070054 54 165 0.0 0.0 0.01 0.06 0.04 88 1012.5
20260906064551 55 165 0.0 0.0 0.01 0.06 0.04 88 1012.5
20260906063046 55 165 0.0 0.0 0.02 0.06 0.04 88 1012.5
20260906061545 55 165 0.0 0.0 0.01 0.05 0.03 88 1012.5
20260906060044 55 165 0.0 0.0 0.02 0.05 0.03 88 1012.6
20260906054557 56 165 0.0 0.0 0.03 0.05 0.03 88 1012.7
20260906053042 56 165 0.0 0.0 0.02 0.04 0.02 89 1012.7
20260906051602 56 165 0.0 0.0 0.02 0.04 0.02 89 1012.7
20260906050044 56 165 0.0 0.0 0.00 0.02 0.00 89 1012.8
20260906044548 56 165 0.0 0.0 0.00 0.02 0.00 89 1012.8
20260906043038 56 165 0.0 0.0 0.00 0.02 0.00 89 1012.8
20260906041537 56 165 0.0 0.0 0.00 0.02 0.00 89 1012.7
20260906034533 57 196 0.0 0.0 0.01 0.02 0.02 89 1012.8
20260906033044 57 196 0.0 0.0 0.02 0.02 0.02 89 1012.7
20260906031530 58 191 0.0 0.0 0.02 0.02 0.02 89 1012.6
20260906030029 58 138 0.0 0.0 0.01 0.01 0.01 89 1012.3
20260906024527 59 199 0.0 7.8 0.01 0.01 0.01 88 1012.0
20260906023026 60 143 0.0 8.7 0.00 0.00 0.00 88 1012.2
20260906021526 61 65 1.7 8.7 0.00 0.00 0.00 87 1012.0
20260906020025 61 334 0.0 5.2 0.00 0.00 0.00 87 1011.8
20260906014528 62 30 1.7 7.8 0.00 0.00 0.00 87 1011.7
20260906013028 62 26 1.7 8.7 0.00 0.00 0.00 87 1011.8
20260906011524 62 65 0.0 0.9 0.00 0.00 0.00 88 1011.9
20260906010023 62 355 0.0 0.0 0.00 0.00 0.00 88 1011.8
20260906004521 63 355 0.0 0.0 0.00 0.00 0.00 87 1011.7
20260906003020 63 13 0.0 0.0 0.00 0.00 0.00 87 1011.4
20260906001518 63 329 0.0 5.2 0.00 0.00 0.00 87 1011.3
20260906000019 63 20 0.0 6.1 0.00 0.00 0.00 87 1011.3
20260905234518 63 5 0.9 6.1 0.00 0.00 0.00 86 1011.1
20260905233014 64 333 0.0 0.0 0.00 0.00 0.00 85 1010.9
20260905231518 64 314 0.0 0.0 0.00 0.00 0.00 85 1010.7
20260905230012 64 16 1.7 9.6 0.00 0.00 0.00 84 1010.7
20260905224523 65 323 0.9 6.1 0.00 0.00 0.00 83 1010.5
20260905223010 65 323 0.0 5.2 0.00 0.00 0.00 82 1010.4